Time,TemperatureF,DewpointF,PressureIn,WindDirection,WindDirectionDegrees,WindSpeedMPH,WindSpeedGustMPH,Humidity,HourlyPrecipIn,Conditions,Clouds,dailyrainin,SoftwareType,DateUTC
2013-07-18 00:00:00,57.4,52.3,30.04,NE,50,0.0,0.0,83,0.00,,,0.00,WeatherTracker,2013-07-18 07:00:00,
2013-07-18 00:10:00,57.2,52.1,30.04,NE,50,0.0,0.0,83,0.00,,,0.00,WeatherTracker,2013-07-18 07:10:00,
2013-07-18 00:20:00,57.0,52.2,30.04,NE,50,0.0,0.0,84,0.00,,,0.00,WeatherTracker,2013-07-18 07:20:00,
2013-07-18 00:30:00,56.7,51.9,30.04,NE,50,0.0,0.0,84,0.00,,,0.00,WeatherTracker,2013-07-18 07:30:00,
2013-07-18 00:40:00,56.6,51.8,30.04,NE,49,0.0,0.0,84,0.00,,,0.00,WeatherTracker,2013-07-18 07:40:00,
2013-07-18 00:50:00,56.4,51.6,30.04,NE,49,0.0,0.0,84,0.00,,,0.00,WeatherTracker,2013-07-18 07:50:00,
2013-07-18 01:00:00,56.5,52.0,30.04,NE,50,0.0,0.0,85,0.00,,,0.00,WeatherTracker,2013-07-18 08:00:00,
2013-07-18 01:10:00,56.7,52.2,30.04,NE,49,0.0,0.0,85,0.00,,,0.00,WeatherTracker,2013-07-18 08:10:00,
2013-07-18 01:20:00,56.9,52.4,30.04,NE,50,0.0,0.0,85,0.00,,,0.00,WeatherTracker,2013-07-18 08:20:00,
2013-07-18 01:30:00,57.1,52.6,30.03,NE,50,0.0,0.0,85,0.00,,,0.00,WeatherTracker,2013-07-18 08:30:00,
2013-07-18 01:40:00,57.3,52.8,30.03,NE,49,0.0,0.0,85,0.00,,,0.00,WeatherTracker,2013-07-18 08:40:00,
2013-07-18 01:50:00,57.6,53.1,30.03,NE,49,0.0,0.0,85,0.00,,,0.00,WeatherTracker,2013-07-18 08:50:00,
2013-07-18 02:00:00,57.8,53.3,30.03,NE,50,0.0,0.0,85,0.00,,,0.00,WeatherTracker,2013-07-18 09:00:00,
2013-07-18 02:10:00,58.1,53.6,30.02,NE,49,0.0,0.0,85,0.00,,,0.00,WeatherTracker,2013-07-18 09:10:00,
2013-07-18 02:20:00,58.3,53.8,30.02,NE,49,0.0,0.0,85,0.00,,,0.00,WeatherTracker,2013-07-18 09:20:00,
2013-07-18 02:30:00,58.5,54.0,30.02,NE,49,0.0,0.0,85,0.00,,,0.00,WeatherTracker,2013-07-18 09:30:00,
2013-07-18 02:40:00,58.5,54.0,30.02,NE,50,0.0,0.0,85,0.00,,,0.00,WeatherTracker,2013-07-18 09:40:00,
2013-07-18 02:50:00,58.6,54.1,30.01,NE,49,0.0,0.0,85,0.00,,,0.00,WeatherTracker,2013-07-18 09:50:00,
2013-07-18 03:00:00,58.5,54.0,30.01,NE,50,0.0,0.0,85,0.00,,,0.00,WeatherTracker,2013-07-18 10:00:00,
2013-07-18 03:10:00,58.4,53.9,30.01,NE,50,0.0,0.0,85,0.00,,,0.00,WeatherTracker,2013-07-18 10:10:00,
2013-07-18 03:20:00,58.5,54.0,30.01,NE,49,0.0,0.0,85,0.00,,,0.00,WeatherTracker,2013-07-18 10:20:00,
2013-07-18 03:30:00,58.5,54.0,30.01,NE,50,0.0,0.0,85,0.00,,,0.00,WeatherTracker,2013-07-18 10:30:00,
2013-07-18 03:40:00,58.4,53.9,30.01,NE,49,0.0,0.0,85,0.00,,,0.00,WeatherTracker,2013-07-18 10:40:00,
2013-07-18 03:50:00,58.5,54.0,30.00,NE,50,0.0,0.0,85,0.00,,,0.00,WeatherTracker,2013-07-18 10:50:00,
2013-07-18 04:00:00,58.5,54.0,30.00,NE,49,0.0,0.0,85,0.00,,,0.00,WeatherTracker,2013-07-18 11:00:00,
2013-07-18 04:10:00,58.5,54.0,30.00,NE,50,0.0,0.0,85,0.00,,,0.00,WeatherTracker,2013-07-18 11:10:00,
2013-07-18 04:20:00,58.6,54.1,30.00,NE,50,0.0,0.0,85,0.00,,,0.00,WeatherTracker,2013-07-18 11:20:00,
2013-07-18 04:30:00,58.6,54.1,30.00,NE,49,0.0,0.0,85,0.00,,,0.00,WeatherTracker,2013-07-18 11:30:00,
2013-07-18 04:40:00,58.6,54.1,30.00,NE,50,0.0,0.0,85,0.00,,,0.00,WeatherTracker,2013-07-18 11:40:00,
2013-07-18 04:50:00,58.6,54.1,30.00,NE,50,0.0,0.0,85,0.00,,,0.00,WeatherTracker,2013-07-18 11:50:00,
2013-07-18 05:00:00,58.7,54.2,30.00,NE,49,0.0,0.0,85,0.00,,,0.00,WeatherTracker,2013-07-18 12:00:00,
2013-07-18 05:10:00,58.6,54.1,30.00,NE,50,0.0,0.0,85,0.00,,,0.00,WeatherTracker,2013-07-18 12:10:00,
2013-07-18 05:20:00,58.5,54.0,30.00,NE,50,0.0,0.0,85,0.00,,,0.00,WeatherTracker,2013-07-18 12:20:00,
2013-07-18 05:30:00,58.5,54.0,30.00,NE,50,0.0,0.0,85,0.00,,,0.00,WeatherTracker,2013-07-18 12:30:00,
2013-07-18 05:40:00,58.5,54.0,30.01,NE,50,0.0,0.0,85,0.00,,,0.00,WeatherTracker,2013-07-18 12:40:00,
2013-07-18 05:50:00,58.5,54.0,30.01,NE,50,0.0,0.0,85,0.00,,,0.00,WeatherTracker,2013-07-18 12:50:00,
2013-07-18 06:00:00,58.4,53.6,30.01,NE,50,0.0,0.0,84,0.00,,,0.00,WeatherTracker,2013-07-18 13:00:00,
2013-07-18 06:10:00,58.2,53.4,30.01,NE,50,0.0,0.0,84,0.00,,,0.00,WeatherTracker,2013-07-18 13:10:00,
2013-07-18 06:20:00,58.2,53.7,30.01,NE,49,0.0,0.0,85,0.00,,,0.00,WeatherTracker,2013-07-18 13:20:00,
2013-07-18 06:30:00,58.2,53.7,30.01,NE,50,0.0,0.0,85,0.00,,,0.00,WeatherTracker,2013-07-18 13:30:00,
2013-07-18 06:40:00,58.2,53.7,30.01,NE,50,0.0,0.0,85,0.00,,,0.00,WeatherTracker,2013-07-18 13:40:00,
2013-07-18 06:50:00,58.4,53.9,30.02,NE,49,0.0,0.0,85,0.00,,,0.00,WeatherTracker,2013-07-18 13:50:00,
2013-07-18 07:00:00,58.5,54.0,30.02,NE,50,0.0,0.0,85,0.00,,,0.00,WeatherTracker,2013-07-18 14:00:00,
2013-07-18 07:10:00,58.6,53.8,30.02,NE,50,0.0,0.0,84,0.00,,,0.00,WeatherTracker,2013-07-18 14:10:00,
2013-07-18 07:20:00,58.7,53.9,30.02,NE,49,0.0,0.0,84,0.00,,,0.00,WeatherTracker,2013-07-18 14:20:00,
2013-07-18 07:30:00,58.7,53.9,30.02,NE,49,0.0,0.0,84,0.00,,,0.00,WeatherTracker,2013-07-18 14:30:00,
2013-07-18 07:40:00,59.0,54.2,30.02,NE,49,0.0,0.0,84,0.00,,,0.00,WeatherTracker,2013-07-18 14:40:00,
2013-07-18 07:50:00,59.0,54.2,30.02,NE,50,0.0,0.0,84,0.00,,,0.00,WeatherTracker,2013-07-18 14:50:00,
2013-07-18 08:00:00,59.2,54.4,30.03,NE,49,0.0,0.0,84,0.00,,,0.00,WeatherTracker,2013-07-18 15:00:00,
2013-07-18 08:10:00,59.7,54.5,30.03,NE,50,0.0,0.0,83,0.00,,,0.00,WeatherTracker,2013-07-18 15:10:00,
2013-07-18 08:20:00,60.0,54.5,30.03,NE,49,0.0,0.0,82,0.00,,,0.00,WeatherTracker,2013-07-18 15:20:00,
2013-07-18 08:30:00,60.2,54.7,30.03,NE,49,0.0,0.0,82,0.00,,,0.00,WeatherTracker,2013-07-18 15:30:00,
2013-07-18 08:40:00,60.4,54.5,30.03,NE,49,0.0,0.0,81,0.00,,,0.00,WeatherTracker,2013-07-18 15:40:00,
2013-07-18 08:50:00,60.7,54.8,30.03,NE,50,0.0,0.0,81,0.00,,,0.00,WeatherTracker,2013-07-18 15:50:00,
2013-07-18 09:00:00,61.2,55.3,30.03,NE,49,0.0,0.0,81,0.00,,,0.00,WeatherTracker,2013-07-18 16:00:00,
2013-07-18 09:10:00,61.5,55.3,30.02,NE,50,0.0,0.0,80,0.00,,,0.00,WeatherTracker,2013-07-18 16:10:00,
2013-07-18 09:20:00,61.8,55.6,30.02,NE,49,0.0,0.0,80,0.00,,,0.00,WeatherTracker,2013-07-18 16:20:00,
2013-07-18 09:30:00,62.1,55.5,30.01,NE,50,0.0,0.0,79,0.00,,,0.00,WeatherTracker,2013-07-18 16:30:00,
2013-07-18 09:40:00,62.5,55.9,30.01,NE,50,0.0,0.0,79,0.00,,,0.00,WeatherTracker,2013-07-18 16:40:00,
2013-07-18 09:50:00,63.6,56.6,30.01,NE,50,0.0,0.0,78,0.00,,,0.00,WeatherTracker,2013-07-18 16:50:00,
2013-07-18 10:00:00,65.3,57.2,30.01,NE,50,0.0,0.0,75,0.00,,,0.00,WeatherTracker,2013-07-18 17:00:00,
2013-07-18 10:10:00,66.6,57.3,30.01,NE,49,0.0,0.0,72,0.00,,,0.00,WeatherTracker,2013-07-18 17:10:00,
2013-07-18 10:20:00,68.0,57.4,30.01,NE,50,0.0,0.0,69,0.00,,,0.00,WeatherTracker,2013-07-18 17:20:00,
2013-07-18 10:30:00,69.4,58.4,30.00,NE,49,0.0,0.0,68,0.00,,,0.00,WeatherTracker,2013-07-18 17:30:00,
2013-07-18 10:40:00,70.1,58.6,30.00,NE,50,0.0,0.0,67,0.00,,,0.00,WeatherTracker,2013-07-18 17:40:00,
2013-07-18 10:50:00,70.9,58.1,30.00,NE,49,0.0,0.0,64,0.00,,,0.00,WeatherTracker,2013-07-18 17:50:00,
2013-07-18 11:00:00,71.9,59.0,30.00,NE,50,0.0,0.0,64,0.00,,,0.00,WeatherTracker,2013-07-18 18:00:00,
2013-07-18 11:10:00,72.9,59.6,29.99,NE,50,0.0,0.0,63,0.00,,,0.00,WeatherTracker,2013-07-18 18:10:00,
2013-07-18 11:20:00,73.3,59.5,29.99,NE,50,0.0,0.0,62,0.00,,,0.00,WeatherTracker,2013-07-18 18:20:00,
2013-07-18 11:30:00,73.5,59.7,29.99,NE,50,0.0,0.0,62,0.00,,,0.00,WeatherTracker,2013-07-18 18:30:00,
2013-07-18 11:40:00,74.3,60.4,29.99,NE,50,0.0,0.0,62,0.00,,,0.00,WeatherTracker,2013-07-18 18:40:00,
2013-07-18 11:50:00,75.2,60.3,29.98,ENE,61,0.0,0.0,60,0.00,,,0.00,WeatherTracker,2013-07-18 18:50:00,
2013-07-18 12:00:00,75.7,61.3,29.98,ENE,61,0.0,0.0,61,0.00,,,0.00,WeatherTracker,2013-07-18 19:00:00,
2013-07-18 12:10:00,75.5,60.6,29.98,ENE,61,0.0,0.0,60,0.00,,,0.00,WeatherTracker,2013-07-18 19:10:00,
2013-07-18 12:20:00,75.5,60.2,29.98,ENE,61,0.0,0.0,59,0.00,,,0.00,WeatherTracker,2013-07-18 19:20:00,
2013-07-18 12:30:00,75.9,61.5,29.98,ENE,61,0.0,0.0,61,0.00,,,0.00,WeatherTracker,2013-07-18 19:30:00,
2013-07-18 12:40:00,76.3,62.3,29.97,NE,54,0.0,0.0,62,0.00,,,0.00,WeatherTracker,2013-07-18 19:40:00,
2013-07-18 12:50:00,76.0,61.6,29.97,NE,54,0.0,0.0,61,0.00,,,0.00,WeatherTracker,2013-07-18 19:50:00,
2013-07-18 13:00:00,76.5,61.6,29.97,NE,54,0.0,0.0,60,0.00,,,0.00,WeatherTracker,2013-07-18 20:00:00,
2013-07-18 13:10:00,77.0,62.0,29.97,NE,54,0.0,0.0,60,0.00,,,0.00,WeatherTracker,2013-07-18 20:10:00,
2013-07-18 13:20:00,77.3,60.9,29.97,NE,54,0.0,0.0,57,0.00,,,0.00,WeatherTracker,2013-07-18 20:20:00,
2013-07-18 13:30:00,76.7,60.8,29.97,NE,53,0.0,0.0,58,0.00,,,0.00,WeatherTracker,2013-07-18 20:30:00,
2013-07-18 13:40:00,76.6,61.2,29.97,NE,55,0.0,0.0,59,0.00,,,0.00,WeatherTracker,2013-07-18 20:40:00,
2013-07-18 13:50:00,76.6,60.2,29.97,NE,52,0.0,0.0,57,0.00,,,0.00,WeatherTracker,2013-07-18 20:50:00,
2013-07-18 14:00:00,76.9,61.0,29.96,ENE,72,0.0,0.0,58,0.00,,,0.00,WeatherTracker,2013-07-18 21:00:00,
2013-07-18 14:10:00,77.6,60.6,29.96,NNE,30,0.0,0.0,56,0.00,,,0.00,WeatherTracker,2013-07-18 21:10:00,
2013-07-18 14:20:00,78.1,61.6,29.95,NE,38,0.0,0.0,57,0.00,,,0.00,WeatherTracker,2013-07-18 21:20:00,
2013-07-18 14:30:00,78.7,61.7,29.95,NE,38,0.0,0.0,56,0.00,,,0.00,WeatherTracker,2013-07-18 21:30:00,
2013-07-18 14:40:00,79.2,61.1,29.95,NE,38,0.0,0.0,54,0.00,,,0.00,WeatherTracker,2013-07-18 21:40:00,
2013-07-18 14:50:00,79.6,60.9,29.94,NE,38,0.0,0.0,53,0.00,,,0.00,WeatherTracker,2013-07-18 21:50:00,
2013-07-18 15:00:00,79.6,60.9,29.94,NE,47,0.0,0.0,53,0.00,,,0.00,WeatherTracker,2013-07-18 22:00:00,
2013-07-18 15:10:00,79.5,60.8,29.94,NE,48,0.0,0.0,53,0.00,,,0.00,WeatherTracker,2013-07-18 22:10:00,
2013-07-18 15:20:00,79.3,60.7,29.93,NE,49,0.0,0.0,53,0.00,,,0.00,WeatherTracker,2013-07-18 22:20:00,
2013-07-18 15:30:00,79.4,60.2,29.93,NE,49,0.0,0.0,52,0.00,,,0.00,WeatherTracker,2013-07-18 22:30:00,
2013-07-18 15:40:00,79.3,61.2,29.93,NE,44,0.0,0.0,54,0.00,,,0.00,WeatherTracker,2013-07-18 22:40:00,
2013-07-18 15:50:00,79.1,61.5,29.93,NE,44,0.0,0.0,55,0.00,,,0.00,WeatherTracker,2013-07-18 22:50:00,
2013-07-18 16:00:00,79.0,60.4,29.93,NE,44,0.0,0.0,53,0.00,,,0.00,WeatherTracker,2013-07-18 23:00:00,
2013-07-18 16:10:00,78.5,59.9,29.93,NE,45,0.0,0.0,53,0.00,,,0.00,WeatherTracker,2013-07-18 23:10:00,
2013-07-18 16:20:00,77.2,60.3,29.92,NE,53,0.0,0.0,56,0.00,,,0.00,WeatherTracker,2013-07-18 23:20:00,
2013-07-18 16:30:00,75.9,58.6,29.92,NE,53,0.0,0.0,55,0.00,,,0.00,WeatherTracker,2013-07-18 23:30:00,
2013-07-18 16:40:00,74.8,58.0,29.92,NE,52,0.0,0.0,56,0.00,,,0.00,WeatherTracker,2013-07-18 23:40:00,
2013-07-18 16:50:00,74.2,58.5,29.92,NE,53,0.0,0.0,58,0.00,,,0.00,WeatherTracker,2013-07-18 23:50:00,
2013-07-18 17:00:00,73.7,58.5,29.92,ENE,61,0.0,0.0,59,0.00,,,0.00,WeatherTracker,2013-07-19 00:00:00,
2013-07-18 17:10:00,73.1,57.9,29.92,ENE,57,0.0,0.0,59,0.00,,,0.00,WeatherTracker,2013-07-19 00:10:00,
2013-07-18 17:20:00,72.6,58.8,29.92,NE,56,0.0,0.0,62,0.00,,,0.00,WeatherTracker,2013-07-19 00:20:00,
2013-07-18 17:30:00,72.0,57.8,29.92,NE,56,0.0,0.0,61,0.00,,,0.00,WeatherTracker,2013-07-19 00:30:00,
2013-07-18 17:40:00,71.6,59.2,29.91,ENE,57,0.0,0.0,65,0.00,,,0.00,WeatherTracker,2013-07-19 00:40:00,
2013-07-18 17:50:00,71.4,59.4,29.91,ENE,57,0.0,0.0,66,0.00,,,0.00,WeatherTracker,2013-07-19 00:50:00,
2013-07-18 18:00:00,70.8,58.9,29.91,ENE,57,0.0,0.0,66,0.00,,,0.00,WeatherTracker,2013-07-19 01:00:00,
2013-07-18 18:10:00,69.9,58.8,29.91,ENE,57,0.0,0.0,68,0.00,,,0.00,WeatherTracker,2013-07-19 01:10:00,
2013-07-18 18:20:00,69.3,59.1,29.91,ENE,57,0.0,0.0,70,0.00,,,0.00,WeatherTracker,2013-07-19 01:20:00,
2013-07-18 18:30:00,69.1,58.9,29.91,ENE,57,0.0,0.0,70,0.00,,,0.00,WeatherTracker,2013-07-19 01:30:00,
2013-07-18 18:40:00,68.9,58.7,29.91,ENE,57,0.0,0.0,70,0.00,,,0.00,WeatherTracker,2013-07-19 01:40:00,
2013-07-18 18:50:00,68.6,58.8,29.91,NE,49,0.0,0.0,71,0.00,,,0.00,WeatherTracker,2013-07-19 01:50:00,
2013-07-18 19:00:00,68.1,58.3,29.91,NE,49,0.0,0.0,71,0.00,,,0.00,WeatherTracker,2013-07-19 02:00:00,
2013-07-18 19:10:00,67.8,58.0,29.92,NE,49,0.0,0.0,71,0.00,,,0.00,WeatherTracker,2013-07-19 02:10:00,
2013-07-18 19:20:00,67.3,57.6,29.92,NE,49,0.0,0.0,71,0.00,,,0.00,WeatherTracker,2013-07-19 02:20:00,
2013-07-18 19:30:00,66.5,57.2,29.92,NE,49,0.0,0.0,72,0.00,,,0.00,WeatherTracker,2013-07-19 02:30:00,
2013-07-18 19:40:00,65.6,56.7,29.92,NE,49,0.0,0.0,73,0.00,,,0.00,WeatherTracker,2013-07-19 02:40:00,
2013-07-18 19:50:00,64.8,56.3,29.92,NE,48,0.0,0.0,74,0.00,,,0.00,WeatherTracker,2013-07-19 02:50:00,
2013-07-18 20:00:00,64.3,56.2,29.92,NE,49,0.0,0.0,75,0.00,,,0.00,WeatherTracker,2013-07-19 03:00:00,
2013-07-18 20:10:00,63.6,55.9,29.93,NE,48,0.0,0.0,76,0.00,,,0.00,WeatherTracker,2013-07-19 03:10:00,
2013-07-18 20:20:00,63.0,55.7,29.93,NE,49,0.0,0.0,77,0.00,,,0.00,WeatherTracker,2013-07-19 03:20:00,
2013-07-18 20:30:00,62.4,55.4,29.93,NE,55,0.0,0.0,78,0.00,,,0.00,WeatherTracker,2013-07-19 03:30:00,
2013-07-18 20:40:00,61.8,55.6,29.93,ENE,60,0.0,0.0,80,0.00,,,0.00,WeatherTracker,2013-07-19 03:40:00,
2013-07-18 20:50:00,61.3,55.4,29.93,ENE,60,0.0,0.0,81,0.00,,,0.00,WeatherTracker,2013-07-19 03:50:00,
2013-07-18 21:00:00,61.1,55.6,29.93,ENE,60,0.0,0.0,82,0.00,,,0.00,WeatherTracker,2013-07-19 04:00:00,
2013-07-18 21:10:00,60.9,55.0,29.93,ENE,60,0.0,0.0,81,0.00,,,0.00,WeatherTracker,2013-07-19 04:10:00,
2013-07-18 21:20:00,60.6,54.7,29.93,ENE,60,0.0,0.0,81,0.00,,,0.00,WeatherTracker,2013-07-19 04:20:00,
2013-07-18 21:30:00,60.2,54.7,29.94,ENE,63,0.0,0.0,82,0.00,,,0.00,WeatherTracker,2013-07-19 04:30:00,
2013-07-18 21:40:00,60.0,54.8,29.94,ENE,63,0.0,0.0,83,0.00,,,0.00,WeatherTracker,2013-07-19 04:40:00,
2013-07-18 21:50:00,59.8,54.6,29.94,ENE,63,0.0,0.0,83,0.00,,,0.00,WeatherTracker,2013-07-19 04:50:00,
2013-07-18 22:00:00,59.7,54.9,29.94,ENE,63,0.0,0.0,84,0.00,,,0.00,WeatherTracker,2013-07-19 05:00:00,
2013-07-18 22:10:00,59.5,54.7,29.94,ENE,63,0.0,0.0,84,0.00,,,0.00,WeatherTracker,2013-07-19 05:10:00,
2013-07-18 22:20:00,59.4,54.6,29.95,ENE,63,0.0,0.0,84,0.00,,,0.00,WeatherTracker,2013-07-19 05:20:00,
2013-07-18 22:30:00,59.3,54.8,29.94,ENE,63,0.0,0.0,85,0.00,,,0.00,WeatherTracker,2013-07-19 05:30:00,
2013-07-18 22:40:00,59.2,54.7,29.94,ENE,63,0.0,0.0,85,0.00,,,0.00,WeatherTracker,2013-07-19 05:40:00,
2013-07-18 22:50:00,59.0,54.5,29.94,ENE,63,0.0,0.0,85,0.00,,,0.00,WeatherTracker,2013-07-19 05:50:00,
2013-07-18 23:00:00,59.0,54.5,29.94,ENE,63,0.0,0.0,85,0.00,,,0.00,WeatherTracker,2013-07-19 06:00:00,
2013-07-18 23:10:00,59.0,54.5,29.94,ENE,63,0.0,0.0,85,0.00,,,0.00,WeatherTracker,2013-07-19 06:10:00,
2013-07-18 23:20:00,58.8,54.3,29.94,ENE,63,0.0,0.0,85,0.00,,,0.00,WeatherTracker,2013-07-19 06:20:00,
2013-07-18 23:30:00,58.6,54.1,29.93,ENE,63,0.0,0.0,85,0.00,,,0.00,WeatherTracker,2013-07-19 06:30:00,
2013-07-18 23:40:00,58.5,54.0,29.93,ENE,63,0.0,0.0,85,0.00,,,0.00,WeatherTracker,2013-07-19 06:40:00,
2013-07-18 23:50:00,58.3,53.8,29.93,ENE,63,0.0,0.0,85,0.00,,,0.00,WeatherTracker,2013-07-19 06:50:00,